Date,TemperatureHighF,TemperatureAvgF,TemperatureLowF,DewpointHighF,DewpointAvgF,DewpointLowF,HumidityHigh,HumidityAvg,HumidityLow,PressureMaxIn,PressureMinIn,WindSpeedMaxMPH,WindSpeedAvgMPH,GustSpeedMaxMPH,PrecipitationSumIn
2013-4-1,62,51,45,-100,-100,-100,0,0,100,29.95,29.68,25,11,31,0.00
2013-4-2,47,43,39,-100,-100,-100,0,0,100,30.14,29.94,20,13,29,0.00
2013-4-3,49,43,38,-100,-100,-100,0,0,100,30.35,30.13,22,14,38,0.00
2013-4-4,44,39,33,-100,-100,-100,0,0,100,30.40,30.10,20,11,22,0.00
2013-4-5,62,47,39,-100,-100,-100,0,0,100,30.10,29.78,18,8,25,0.00
2013-4-6,54,46,42,-100,-100,-100,0,0,100,30.32,29.99,20,10,25,0.00
2013-4-7,54,48,43,-100,-100,-100,0,0,100,30.28,29.98,22,15,27,0.00
2013-4-8,61,55,51,-100,-100,-100,0,0,100,30.06,29.95,16,9,18,0.00
2013-4-9,72,61,54,-100,-100,-100,0,0,100,30.04,29.91,16,11,20,0.00
2013-4-10,81,57,54,-100,-100,-100,0,0,100,29.94,29.76,18,9,20,0.00
2013-4-11,70,61,53,-100,-100,-100,0,0,100,29.87,29.75,16,7,22,0.00
2013-4-12,57,54,51,-100,-100,-100,0,0,100,29.84,29.58,29,4,47,0.00
2013-4-13,60,55,50,-100,-100,-100,0,0,100,29.92,29.70,20,9,25,0.00
2013-4-14,63,56,49,-100,-100,-100,0,0,100,30.11,29.91,20,7,22,0.00
2013-4-15,59,56,54,-100,-100,-100,0,0,100,30.28,30.10,11,7,13,0.00
2013-4-16,62,58,54,-100,-100,-100,0,0,100,30.30,30.10,22,10,27,0.00
2013-4-17,66,61,58,-100,-100,-100,0,0,100,30.22,30.10,20,8,27,0.00
2013-4-18,65,60,58,-100,-100,-100,0,0,100,30.23,30.01,18,9,20,0.00
2013-4-19,67,62,56,-100,-100,-100,0,0,100,30.01,29.59,34,18,54,0.00
2013-4-20,59,54,49,-100,-100,-100,0,0,100,30.30,29.74,20,14,34,0.00
2013-4-21,53,48,44,-100,-100,-100,0,0,100,30.58,30.29,20,12,25,0.00
2013-4-22,53,49,45,-100,-100,-100,0,0,100,30.57,30.40,18,15,22,0.00
2013-4-23,57,51,47,-100,-100,-100,0,0,100,30.40,30.12,18,12,22,0.00
2013-4-24,69,57,50,-100,-100,-100,0,0,100,30.12,29.78,22,14,27,0.00
2013-4-25,69,55,49,-100,-100,-100,0,0,100,30.27,29.88,27,13,36,0.00
2013-4-26,62,57,51,-100,-100,-100,0,0,100,30.42,30.27,13,7,16,0.00
2013-4-27,63,58,51,-100,-100,-100,0,0,100,30.41,30.28,16,5,20,0.00
2013-4-28,63,59,54,-100,-100,-100,0,0,100,30.28,30.14,18,11,22,0.00
2013-4-29,59,57,55,-100,-100,-100,0,0,100,30.17,30.05,20,13,27,0.00
2013-4-30,61,58,56,-100,-100,-100,0,0,100,30.26,30.07,18,12,27,0.00